Location: Bullards Ferry
(33.9807°N, 82.8096°W)
Time: 08:21:33
(UTC+00:00)

N. Korean satellite - Visible Passes

Search period start: 30 November 2021 00:00
Search period end: 10 December 2021 00:00
Orbit: 447 x 495 km, 97.3° (Epoch: 29 November)

Date Brightness Start Highest point End Pass type
(mag) Time Alt. Az. Time Alt. Az. Time Alt. Az.
30 Nov 9.3 09:58:54 10° NE 10:01:17 18° E 10:03:39 10° SE visible
30 Nov 7.9 11:32:02 10° NNW 11:34:19 17° WNW 11:36:37 10° WSW visible
01 Dec 6.7 11:02:46 10° N 11:06:00 43° WNW 11:09:12 10° SSW visible
01 Dec 10.1 23:08:03 10° WSW 23:09:23 12° W 23:10:42 10° WNW visible
02 Dec 6.8 10:34:13 10° NNE 10:37:34 63° E 10:40:54 10° S visible
03 Dec 8.9 10:06:16 10° NE 10:09:00 23° E 10:11:45 10° SSE visible
03 Dec 8.2 11:40:11 10° NW 11:41:57 14° WNW 11:43:43 10° WSW visible
04 Dec 7.0 11:10:34 10° N 11:13:38 33° WNW 11:16:41 10° SW visible
05 Dec 6.3 10:41:49 10° NNE 10:45:12 86° ESE 10:48:34 10° S visible
05 Dec 9.5 22:45:38 10° SSW 22:48:26 22° W 22:51:14 10° NW visible
06 Dec 8.4 10:13:38 10° NE 10:16:39 29° E 10:19:38 10° SSE visible
06 Dec 8.4 11:48:37 10° NW 11:49:30 11° WNW 11:50:22 10° W visible
07 Dec 9.8 09:46:39 10° ENE 09:47:59 12° E 09:49:19 10° ESE visible
07 Dec 7.4 11:18:19 10° NNW 11:21:10 26° WNW 11:24:01 10° SW visible
08 Dec 6.2 10:49:22 10° N 10:52:44 72° WNW 10:56:06 10° SSW visible
08 Dec 9.7 22:53:38 10° SW 22:56:01 17° W 22:58:23 10° NW visible
09 Dec 7.8 10:20:59 10° NNE 10:24:11 38° E 10:27:22 10° S visible
